User: anonymous   Login
Location: Skalnate Pleso
(49.1889°N, 20.2450°E)
Time: 05:09:47
(UTC+01:00)
Language:

Iridium 45 - Orbit

View from above orbital plane
View from above orbital plane
View from above satellite
View from above satellite

Ground track
Ground track

The orbit data is extracted from the following two-line orbital elements,

1 25104U 97082A   18021.43736418 -.00000024  00000-0 -15777-4 0  9995
2 25104  86.3967 195.9869 0001404  64.9698 295.1644 14.34212914 51650
Epoch (UTC): 21 January 2018 10:29:48
Eccentricity: 0.0001404
inclination: 86.3967°
perigee height: 776 km
apogee height: 778 km
right ascension of ascending node: 195.9869°
argument of perigee: 64.9698°
revolutions per day: 14.34212914
mean anomaly at epoch: 295.1644°
orbit number at epoch: 5165

The dashed part of the orbit path shows where the satellite is in the earth's shadow,  

DLR